Weather Roundup
Issued by NWS

Home | Current Version | Previous Version | Text Only | Print | Product List | Glossary On
Versions: 1 2 3 4 5 6 7 8 9 10 11 12 13 14 15 16 17 18 19 20 21 22 23 24 25 26 27 28 29 30 31 32 33 34 35 36 37 38 39 40 41 42 43 44 45 46 47 48 49 50
000
NZUS93 KARX 280210
HRRWXR

CURRENT HOURLY OBSERVATIONS ACROSS
MUCH OF THE UPPER MISSISSIPPI VALLEY
NATIONAL WEATHER SERVICE LA CROSSE WI
900 PM CDT THU APR 27 2017


...SOUTHEAST MINNESOTA...


CITY           SKY/WX    TMP DP  RH WIND       PRES   REMARKS
ROCHESTER      CLOUDY    33  27  78 W15       29.74R WCI  23
ROCHESTER/MAYO CLOUDY    34  27  76 W13G24    29.74R WCI  25
WINONA         CLOUDY    36  28  75 W9        29.75R WCI  29
AUSTIN         CLOUDY    36  27  69 W8        29.76R WCI  29
ALBERT LEA     CLOUDY    34  27  75 NW12G18   29.77R WCI  25
DODGE CENTER   CLOUDY    34  27  75 W13       29.74R WCI  25
PRESTON        CLOUDY    33  27  79 W15       29.75R WCI  23
OWATONNA       CLOUDY    34  27  75 W16       29.76R WCI  23
FARIBAULT      CLOUDY    34  27  75 W10       29.76R WCI  26
$$

...ELSEWHERE IN MINNESOTA...


CITY           SKY/WX    TMP DP  RH WIND       PRES   REMARKS
MINNEAPOLIS    CLOUDY    34  23  64 NW9       29.74R WCI  27
INTNL FALLS    CLOUDY    28  20  71 NW8       29.61R WCI  20
DULUTH         CLOUDY    29  20  69 W14       29.61R WCI  18
RED WING       CLOUDY    36  25  64 NW10      29.73R WCI  28
REDWOOD FALLS  CLOUDY    36  26  67 NW10      29.78R WCI  28
MANKATO        CLOUDY    34  26  72 W10       29.78R WCI  26
WORTHINGTON    CLEAR     34  30  85 NE7       29.78R WCI  28
FAIRMONT       CLEAR     34  28  79 N12       29.79R WCI  25
$$

...SOUTHWEST WISCONSIN...


CITY           SKY/WX    TMP DP  RH WIND       PRES   REMARKS
LA CROSSE      CLOUDY    39  30  70 W13       29.74R WCI  31
PRAIRIE DU CHI CLOUDY    40  29  67 W9        29.77R WCI  33
BOSCOBEL       CLOUDY    41  30  65 SW8       29.76R
LONE ROCK      CLOUDY    40  30  67 W12       29.75R WCI  33
PLATTEVILLE    CLOUDY    39  32  77 W9G18     29.78R WCI  33
FORT MC COY    CLOUDY    37  32  84 W10G16    29.73R WCI  29
CAMP DOUGLAS   MIX PCPN  36  32  87 W14       29.72R WCI  27
MAUSTON-NEW LI DRIZZLE   38  33  80 W12       29.71R WCI  31
VIROQUA        CLOUDY    35  32  89 W9        29.72R WCI  28
WIS DELLS      CLOUDY    38  32  79 W10G17    29.72R WCI  30
$$

...ELSEWHERE IN WISCONSIN...


CITY           SKY/WX    TMP DP  RH WIND       PRES   REMARKS
MILWAUKEE      CLOUDY    44  34  67 SW10G24   29.75R
MADISON        CLOUDY    40  31  70 W8G18     29.73R WCI  34
GREEN BAY      CLOUDY    41  36  82 SW9       29.67R
EAU CLAIRE     CLOUDY    33  25  72 W14       29.71R WCI  23
BLACK RVR FLS  LGT RAIN  35  32  88 W7        29.71R WCI  29
MEDFORD        CLOUDY    29  28  93 W8        29.65R WCI  21
WAUSAU         CLOUDY    32  28  85 W12       29.66R WCI  23
WIS RAPIDS     CLOUDY    36  32  85 W8        29.70R WCI  30
MARSHFIELD     CLOUDY    33  29  85 W7        29.67R FOG     WCI  27
RICE LAKE      CLOUDY    31  25  78 W12       29.71R WCI  22
$$

...NORTHEAST IOWA...


CITY           SKY/WX    TMP DP  RH WIND       PRES   REMARKS
WATERLOO       CLOUDY    41  29  62 W5        29.79R
DUBUQUE          N/A     37  31  78 MISG      29.78R
DECORAH        CLOUDY    37  28  70 W9G20     29.75R WCI  31
MASON CITY     CLOUDY    36  29  75 NW9       29.79R WCI  29
CHARLES CITY   CLOUDY    37  30  75 NW10G17   29.78R WCI  30
OELWEIN        NOT AVBL
$$

...ELSEWHERE IN IOWA...


CITY           SKY/WX    TMP DP  RH WIND       PRES   REMARKS
DES MOINES     MOCLDY    49  34  56 N9        29.77R
IOWA CITY      CLEAR     45  34  65 N6        29.81R
FORT DODGE     CLEAR     39  27  60 CALM      29.80R
MARSHALLTOWN   CLEAR     39  31  72 NW5       29.78R
CEDAR RAPIDS   CLEAR     38  34  85 NW6       29.79R WCI  33
$$

...NORTHERN ILLINOIS...


CITY           SKY/WX    TMP DP  RH WIND       PRES   REMARKS
CHICAGO-OHARE  CLOUDY    45  34  65 W13G20    29.79R
CHICAGO-MIDWAY CLOUDY    46  36  68 W10G20    29.80R
MOLINE         CLEAR     40  36  86 CALM      29.80R
ROCKFORD       CLOUDY    43  35  73 W7        29.80R
PEORIA         CLOUDY    50  43  77 S3        29.83R
$$

NOTE: "FAIR" INDICATES FEW OR NO CLOUDS BELOW 12,000 FEET WITH NO
SIGNIFICANT WEATHER AND/OR OBSTRUCTIONS TO VISIBILITY. WIND
SPEEDS ARE IN MILES-PER-HOUR.




USA.gov is the U.S. government's official web portal to all federal, state and local government web resources and services.